SCP
0 0 0 0 0 0 0 0 0 0 0 0 0 0 0 0 0 0 0 0 0 0 0 0 0 0 0 0 0 0 0 0 0 0 0 -0 -0 -0 -0 -0 -0 -0 -0 -0 -0 0 -0 -0 -0
0 0 0 0 0 0 0 0 0 0 0 0 0 0 0 0 0 0 0 0 0 0 0 0 0 0 0 0 0 0 0 0 0 0 0 0 -0 -0 -0 -0 0 -0 -0 0 0 0 -0 -0 -0
0 0 0 0 0 0 0 0 0 0 0 0 0 0 0 0 0 0 0 0 0 0 0 0 1 1 0 0 0 0 0 0 0 0 0 0 0 -0 -0 0 0 0 0 -0 -0 -0 -0 -0 -0
0 0 0 0 0 0 0 0 0 0 0 0 0 0 0 0 0 0 0 0 0 0 0 0 0 1 1 0 0 0 0 0 0 0 0 0 0 0 0 0 0 0 0 -0 -0 -0 -0 -0 0
0 0 0 0 0 0 0 0 0 0 0 0 0 0 0 0 0 0 0 0 0 0 0 0 0 0 1 1 0 0 0 0 0 0 0 0 0 0 0 0 0 -0 0 -0 -0 -0 -0 -0 0
0 0 0 0 0 0 0 0 0 0 0 0 0 0 0 0 0 0 0 0 0 0 0 0 0 0 0 1 1 0 0 0 0 0 0 0 0 0 0 0 0 -0 -0 -0 -0 -0 0 0 0
0 0 0 0 0 0 0 0 0 0 0 0 0 0 0 0 0 0 0 0 0 0 0 0 0 0 0 0 0 0 0 0 0 0 0 0 0 0 0 0 0 0 0 0 0 -0 0 0 0
0 0 0 0 0 0 0 0 0 0 0 0 0 0 0 0 0 0 0 0 0 0 0 0 0 0 0 0 0 0 0 0 0 0 0 0 0 0 0 0 0 0 0 0 0 0 -0 0 0
0 0 0 0 0 0 0 0 0 0 0 0 0 0 0 0 0 0 0 0 0 0 0 0 0 0 0 0 0 0 0 0 0 0 0 0 0 0 0 0 0 0 0 0 0 0 0 0 0
0 0 0 0 0 0 0 0 0 0 0 0 0 0 0 0 0 0 0 0 0 0 0 0 0 0 0 0 0 0 0 1 1 1 0 0 0 0 0 0 0 0 0 0 0 0 0 0 0
0 0 0 0 0 0 0 0 0 0 0 0 0 0 0 0 0 0 0 0 0 0 0 0 0 0 0 0 0 0 0 0 1 1 1 1 0 0 0 0 0 0 0 0 0 0 0 0 0
0 0 0 0 0 0 0 0 0 0 0 0 0 0 0 0 0 0 0 0 0 0 0 0 0 0 0 0 0 0 0 0 1 1 1 1 1 0 1 0 0 0 0 0 0 0 0 0 0
0 0 0 0 0 0 0 0 0 0 0 0 0 0 0 0 0 0 0 0 0 0 0 0 0 0 0 0 0 0 0 0 0 1 1 1 1 1 1 0 0 0 0 0 0 0 0 0 0
0 0 0 0 0 0 0 0 0 0 0 0 0 0 0 0 0 0 0 0 0 0 0 0 0 0 0 0 0 0 0 0 0 0 1 1 1 1 1 1 0 0 0 0 0 0 0 0 0
0 0 0 0 0 0 0 0 0 0 0 0 0 0 0 0 0 0 0 0 0 0 -0 0 -0 -0 0 0 0 0 0 0 0 0 1 1 1 1 1 1 1 0 0 0 0 0 0 0 0
0 0 0 0 0 0 0 0 0 0 0 0 0 0 0 0 0 0 0 0 0 -0 -0 -0 -0 0 0 0 0 0 0 0 0 0 0 1 1 1 1 1 1 0 0 0 0 0 0 0 0
0 0 0 0 0 0 0 0 0 0 0 0 0 0 0 0 0 0 0 0 -0 -0 -0 -0 -0 0 0 0 0 0 0 0 0 0 0 0 1 1 1 1 1 1 0 0 0 0 0 0 0
0 0 0 0 0 0 0 0 0 0 0 0 0 0 0 0 0 0 -0 -0 -0 -0 -0 -0 -0 0 0 0 0 0 0 0 0 0 0 0 0 1 1 1 1 1 0 0 0 0 0 0 0
0 0 0 0 0 0 0 0 0 0 0 0 0 0 0 0 0 -0 -0 -0 -0 -0 0 0 0 0 0 0 0 0 0 0 0 0 0 0 0 1 1 1 1 1 0 0 0 0 0 0 0
0 0 -0 0 0 0 0 0 0 0 0 0 0 0 0 0 0 -0 -0 0 0 0 0 0 0 0 0 0 0 0 0 0 0 0 0 0 0 1 1 1 1 1 1 0 0 0 0 0 0
0 0 0 -0 -0 -0 -0 -0 0 0 0 0 0 0 0 0 0 0 0 0 0 0 0 0 0 0 0 0 0 0 0 0 0 0 0 0 0 1 1 0 1 1 1 0 0 0 0 0 0
0 0 0 0 -0 -0 0 0 0 0 0 0 0 0 0 0 0 -0 -0 0 0 0 0 0 0 0 0 0 0 0 0 0 0 0 0 0 0 1 1 1 1 1 1 0 0 0 0 0 0
0 0 0 0 0 0 0 0 0 0 0 0 0 0 0 0 0 -0 -0 -0 0 0 0 0 0 0 0 0 0 0 0 0 0 0 0 0 0 1 1 1 1 1 1 0 0 0 0 0 0
0 0 0 0 0 0 0 0 0 0 0 0 0 0 0 0 -0 -0 -0 -0 -0 -0 -0 -0 -0 -0 -0 0 0 0 0 0 0 0 0 0 0 0 0 0 0 0 1 0 0 0 0 0 0
0 0 0 0 0 0 0 0 -0 -0 0 0 0 0 -0 -0 -0 -0 -0 -0 0 0 -0 -0 -0 0 0 0 0 0 0 0 0 0 0 0 0 0 0 0 0 0 0 0 0 0 0 0 0
0 0 0 0 0 0 0 0 -0 0 0 0 0 -0 -0 -0 -0 -0 -0 -0 -0 -0 -0 0 0 0 0 0 0 0 0 0 0 0 0 0 0 0 0 0 0 0 0 0 0 0 0 0 0
0 0 0 0 0 0 0 0 0 0 0 0 0 -0 -0 -0 -0 -0 -0 -0 -0 -0 -0 0 0 0 -0 -0 0 0 0 0 0 0 0 0 0 0 0 0 0 0 0 0 0 0 0 0 0
0 0 0 0 0 0 0 0 0 0 0 -0 -0 -0 -0 -0 -0 -0 -0 -0 -0 -0 -0 -0 0 0 -0 0 -0 -0 0 0 0 0 0 0 0 0 0 0 0 0 0 0 0 0 0 0 0
0 0 0 0 0 0 0 0 0 0 0 -0 -0 -0 -0 -0 -0 -0 -0 0 -0 -0 -0 -0 0 -0 -0 0 0 -0 -0 0 0 0 0 0 0 0 0 0 0 0 0 0 0 0 0 0 0
0 0 0 0 0 0 0 0 0 0 0 0 -0 -0 -0 -0 0 -0 -0 -0 -0 -0 -0 -0 -0 -0 -0 -0 0 0 0 0 0 0 -0 -0 0 0 0 0 0 0 0 0 0 0 0 0 0
Wind_Speed_500mb
29 31 30 14 8 9 5 11 7 4 3 4 6 12 21 10 7 12 19 12 6 7 2 7 17 17 18 17 17 17 14 13 12 13 13 8 5 9 15 18 19 22 25 28 30 29 28 27 20
32 30 17 6 9 6 8 9 3 2 4 7 10 11 16 8 18 27 18 13 11 12 4 5 20 19 20 21 20 17 15 12 10 11 13 11 9 10 16 18 22 29 30 28 27 26 31 22 22
32 25 8 8 6 9 8 4 6 2 14 3 6 18 11 10 25 22 18 10 8 12 9 8 17 21 21 23 24 24 20 16 13 11 13 12 13 15 15 16 27 27 21 22 24 29 24 20 24
19 9 9 8 9 9 10 8 8 2 5 13 5 12 14 12 15 22 17 11 6 6 8 8 8 17 20 23 25 26 27 23 19 15 13 13 15 19 20 20 31 27 25 29 27 22 21 22 27
13 8 7 3 8 4 2 3 5 6 6 11 9 6 15 25 26 22 15 16 14 12 12 9 1 8 20 22 26 29 31 30 27 23 18 17 17 20 25 25 28 29 28 26 23 21 20 22 26
5 4 6 8 8 8 1 2 4 7 7 8 8 8 8 19 16 8 6 13 19 20 19 14 10 11 15 26 29 31 35 35 33 29 25 18 20 23 27 27 25 30 31 28 23 22 21 22 26
10 6 7 7 9 9 5 4 6 8 5 8 5 6 14 17 6 10 18 21 25 29 31 26 22 17 17 25 30 33 36 38 38 35 32 27 22 24 28 30 31 34 31 29 27 25 24 24 27
5 7 4 6 8 7 4 5 6 4 6 3 5 6 6 18 24 27 30 32 32 32 37 35 28 27 25 22 29 28 36 41 42 40 39 35 30 26 31 34 34 33 34 29 28 28 27 26 28
2 5 4 4 3 4 5 5 4 3 4 7 9 10 14 27 34 35 33 34 38 38 35 32 29 30 32 33 28 31 31 42 45 46 44 42 42 35 35 38 39 37 39 34 31 30 28 28 30
6 4 7 1 1 3 1 1 1 3 1 12 24 27 22 20 28 33 36 42 45 37 29 28 29 30 36 38 39 35 34 38 49 51 51 51 48 44 39 41 42 41 41 39 35 33 33 32 33
0 6 2 3 3 0 5 8 4 5 9 29 21 32 29 31 36 40 36 34 35 37 36 33 33 34 35 43 46 47 40 39 46 55 56 58 56 52 48 45 46 50 47 44 43 40 38 37 37
4 11 12 6 4 3 5 10 10 23 30 38 31 38 40 40 34 36 37 32 29 36 43 40 38 38 38 41 49 53 53 47 45 55 62 65 65 61 58 53 54 56 56 54 50 45 40 41 40
4 7 13 14 22 19 20 23 20 28 42 42 42 38 37 35 35 31 34 32 35 42 51 53 53 50 47 46 46 55 60 59 53 50 60 68 71 70 66 62 61 61 62 60 57 49 45 45 45
14 15 25 27 34 30 18 27 22 28 27 30 28 37 36 35 31 35 29 34 44 51 55 60 63 64 64 62 56 54 60 68 65 61 58 69 76 77 75 70 68 68 68 65 61 53 50 47 47
16 12 14 24 28 11 9 11 17 51 49 48 47 32 29 35 33 28 32 42 48 56 67 74 77 76 74 71 70 66 62 65 75 74 67 65 73 82 82 80 77 74 73 69 64 59 53 51 51
9 5 7 12 13 8 15 13 21 29 17 26 36 45 45 25 24 28 36 46 54 66 72 70 66 67 72 72 72 75 73 69 72 79 80 72 70 80 87 88 85 80 77 73 72 67 62 60 60
11 7 8 17 20 8 10 11 21 34 31 31 33 35 38 38 33 33 41 53 61 65 67 67 61 57 60 65 69 73 77 78 73 76 84 85 77 73 86 94 91 87 84 78 78 74 70 66 67
9 10 11 14 11 12 17 25 22 59 49 42 42 19 19 24 30 41 53 62 58 57 63 65 60 55 50 52 54 60 70 81 80 78 83 87 87 83 82 92 98 96 92 85 81 79 74 72 71
8 11 14 14 16 12 18 29 24 39 43 41 41 24 24 26 34 45 55 52 54 53 62 66 61 54 49 47 55 65 73 73 86 85 82 83 84 83 80 94 101 103 100 95 88 83 78 75 72
4 11 14 14 9 8 14 34 27 21 25 45 31 21 14 25 38 48 49 48 48 53 62 65 54 52 52 56 56 64 66 72 75 82 82 83 81 81 81 86 101 106 102 98 95 90 86 78 75
6 10 9 13 13 10 10 19 16 14 31 25 25 14 9 21 30 38 43 41 46 54 54 56 48 46 52 58 60 59 62 67 67 79 82 86 83 82 80 85 97 104 106 103 99 97 96 86 81
10 7 10 15 11 7 9 11 12 12 3 12 23 10 8 15 24 32 36 41 43 46 50 53 52 54 58 52 55 55 63 68 70 73 70 74 83 78 79 79 91 90 112 107 104 100 102 94 89
14 8 10 8 6 7 9 3 14 4 7 12 16 9 8 13 21 30 29 37 38 44 51 53 52 44 43 38 45 51 58 61 61 63 66 72 74 79 76 76 84 89 98 107 110 106 106 105 97
11 10 11 0 2 5 10 10 11 7 12 7 8 12 10 14 20 26 27 31 36 44 56 52 45 43 34 35 41 53 58 57 61 63 66 63 72 84 77 72 73 81 87 105 111 106 113 117 111
13 8 8 8 4 11 1 8 20 11 12 13 15 14 11 13 17 23 26 33 37 45 53 58 46 43 31 35 41 49 60 59 62 63 64 66 66 75 87 86 84 77 97 85 98 118 104 123 114
3 1 4 9 5 10 7 11 11 10 18 19 13 11 11 12 16 19 23 30 33 40 45 51 54 46 36 36 41 48 56 65 64 65 65 65 68 67 70 72 74 78 72 96 93 119 109 107 106
1 1 2 6 4 8 8 14 14 6 5 8 13 16 17 12 15 19 22 25 29 35 41 45 51 55 45 43 40 40 42 52 60 58 60 62 67 69 62 59 61 66 73 76 99 93 115 115 107
4 3 8 5 7 10 10 11 10 9 13 11 13 24 22 16 17 19 21 23 25 29 35 39 44 51 51 42 36 37 36 41 51 54 56 62 61 65 64 61 55 58 65 77 87 86 72 106 110
3 3 3 6 5 6 7 14 12 13 17 18 19 30 23 20 19 20 22 23 26 27 30 35 40 47 53 41 39 37 36 33 38 48 53 55 61 62 65 69 64 60 60 65 74 75 69 92 92
6 12 10 7 8 5 6 14 8 11 15 24 27 29 29 26 21 21 22 23 24 28 29 33 34 40 46 46 33 33 28 30 36 43 40 42 55 61 69 73 71 66 66 67 67 71 63 67 70
Wind_Direction_500mb
154 155 147 128 74 66 248 262 312 59 76 147 51 104 104 64 43 152 115 116 56 197 202 211 210 205 212 200 192 187 178 171 167 155 154 146 136 150 150 146 137 137 139 143 146 144 155 144 137
157 156 144 91 94 121 256 301 135 324 286 140 110 125 47 74 93 122 95 111 105 118 147 229 211 211 216 213 208 209 196 192 180 170 166 156 149 155 155 147 140 138 131 137 144 160 152 143 144
158 154 110 103 122 187 195 225 163 64 44 212 119 80 81 103 128 128 120 131 116 113 98 78 202 218 223 217 218 217 217 215 211 190 183 175 162 162 164 153 154 146 145 160 156 152 154 150 149
146 120 73 104 209 246 186 210 197 264 49 43 61 58 77 109 136 154 168 189 261 331 25 56 125 217 228 231 222 225 221 223 225 217 188 198 179 174 168 161 159 155 157 143 156 161 158 157 156
109 114 82 143 242 219 116 174 125 88 109 53 46 99 104 105 136 155 197 234 256 276 300 309 5 196 231 242 242 229 226 225 225 224 216 210 203 188 181 176 174 172 173 166 166 170 168 164 165
67 83 87 202 229 135 87 272 125 63 41 28 59 92 119 144 169 161 229 267 285 293 277 287 273 233 224 230 245 245 231 227 227 224 225 218 212 202 195 192 190 185 184 182 179 182 177 178 175
101 77 210 210 212 153 184 358 81 110 93 47 72 111 146 164 165 309 300 284 282 291 291 284 271 251 237 230 239 249 243 234 227 226 225 221 217 220 206 202 203 198 191 192 193 190 186 185 182
85 104 251 259 204 178 210 130 142 133 165 74 143 202 196 184 309 308 294 285 284 287 292 288 272 248 241 237 242 249 245 240 236 226 226 224 226 225 224 209 207 207 200 201 199 197 193 194 191
64 66 243 297 169 187 193 153 134 140 173 254 206 225 264 290 296 291 288 288 291 296 291 286 276 254 243 242 240 248 249 239 237 234 227 226 226 227 225 218 212 213 208 208 207 205 202 198 195
80 123 232 304 36 165 40 117 257 253 170 266 263 253 262 273 292 292 292 294 299 299 293 291 283 269 252 246 244 241 247 247 236 231 230 228 227 227 230 223 217 212 216 214 211 210 208 206 201
306 215 320 298 114 4 297 299 259 274 274 243 243 271 272 273 288 290 295 300 304 307 301 300 293 283 267 253 248 250 242 243 243 236 235 230 228 226 229 224 218 210 216 215 215 214 214 211 205
264 255 262 254 223 182 243 285 287 245 247 265 271 275 274 274 277 283 291 296 292 294 296 290 285 282 278 266 251 247 248 243 240 240 233 233 229 226 227 225 220 214 214 214 219 221 218 213 208
257 289 314 289 298 280 262 240 250 254 264 269 272 265 260 266 271 279 282 281 282 286 293 291 287 283 276 270 261 249 245 245 244 241 238 234 235 230 227 226 224 220 218 217 220 221 220 217 212
313 298 294 303 292 279 258 259 247 262 268 271 264 259 252 254 263 272 264 271 281 289 291 291 288 282 278 272 267 259 248 242 243 243 237 238 236 236 230 228 226 224 223 223 223 223 222 220 215
289 301 309 271 268 235 269 277 235 263 273 262 260 256 245 251 257 249 265 279 289 295 298 296 290 284 278 274 269 264 257 245 240 241 242 238 238 236 235 231 228 228 226 225 226 224 224 222 217
313 14 342 303 338 233 169 278 276 290 299 275 248 249 260 246 232 248 272 288 299 304 305 302 294 282 273 273 269 264 258 250 241 239 240 239 239 238 235 234 231 231 229 225 225 224 223 221 219
10 310 318 322 304 279 210 261 272 288 303 300 292 285 280 251 253 277 292 302 305 304 307 306 301 291 277 270 270 265 260 253 245 237 237 238 238 240 239 236 234 232 232 226 226 225 225 223 221
272 264 235 244 280 311 283 267 268 278 282 281 291 282 250 266 275 288 302 304 300 301 307 307 300 294 284 270 266 267 262 252 247 241 233 236 238 238 241 239 238 232 230 228 226 225 226 227 225
246 256 267 266 264 280 265 274 268 270 270 272 281 247 249 285 292 304 307 300 304 301 304 307 298 288 277 267 268 270 265 262 247 241 235 234 236 238 237 235 237 235 231 230 228 225 225 226 222
313 291 292 285 290 301 281 282 273 249 250 252 244 218 277 306 307 312 315 307 306 305 308 307 299 288 273 265 266 268 269 264 258 246 240 232 234 238 237 233 234 232 232 231 229 225 222 223 221
274 263 274 272 310 264 264 282 255 269 243 223 181 188 294 320 319 320 316 313 311 308 310 314 312 297 282 262 258 261 263 261 257 244 241 232 232 235 237 234 231 233 231 232 228 226 223 219 220
301 256 284 296 350 282 49 292 281 274 146 154 172 182 327 319 317 321 323 322 323 326 323 315 309 302 296 263 254 261 262 259 251 245 246 239 232 236 240 240 235 230 223 230 233 227 226 221 221
251 290 280 259 262 311 311 113 275 115 156 188 200 194 297 307 310 323 328 339 337 331 326 323 314 302 297 264 253 261 262 259 256 252 249 241 234 232 238 242 237 237 232 232 229 230 227 222 223
279 311 310 216 135 306 233 157 281 216 206 188 189 220 261 299 313 324 327 340 338 337 338 336 328 314 285 267 254 253 259 256 252 253 249 244 233 230 233 238 242 239 237 239 233 231 233 224 224
35 47 334 346 349 233 213 150 253 248 222 182 194 224 254 293 314 324 324 335 339 348 350 348 341 332 308 279 270 262 257 255 255 252 247 239 236 233 232 236 243 246 239 235 235 231 231 228 224
258 47 137 301 304 287 309 233 251 260 197 181 186 221 240 285 308 316 328 342 348 350 348 352 353 342 332 313 282 265 259 253 250 254 249 242 236 235 235 236 241 244 247 242 235 243 235 243 228
349 55 299 258 197 278 266 295 311 74 131 193 212 232 250 274 308 321 331 339 350 348 348 352 357 354 328 322 314 291 273 254 252 250 248 247 239 238 243 245 246 245 246 245 241 246 238 235 231
184 207 47 342 328 298 288 284 245 242 230 233 246 241 263 281 304 323 330 333 343 338 339 344 359 359 357 334 317 307 294 263 254 250 250 246 242 239 239 243 246 251 250 244 243 253 256 235 237
116 289 158 130 188 204 300 277 216 236 207 212 232 245 258 275 290 308 323 334 336 339 342 344 356 3 11 3 353 313 295 283 248 246 248 248 245 243 242 246 248 250 255 250 248 248 246 249 234
203 202 160 133 254 212 167 272 270 253 210 210 238 253 262 265 274 289 304 317 333 342 345 347 356 7 12 16 356 331 315 280 261 249 245 248 245 243 245 247 249 251 256 255 252 240 230 231 239
Wind_Speed_850mb
29 31 30 14 8 9 5 11 7 4 3 4 6 12 21 10 7 12 19 12 6 7 2 7 17 17 18 17 17 17 14 13 12 13 13 8 5 9 15 18 19 22 25 28 30 29 28 27 20
32 30 17 6 9 6 8 9 3 2 4 7 10 11 16 8 18 27 18 13 11 12 4 5 20 19 20 21 20 17 15 12 10 11 13 11 9 10 16 18 22 29 30 28 27 26 31 22 22
32 25 8 8 6 9 8 4 6 2 14 3 6 18 11 10 25 22 18 10 8 12 9 8 17 21 21 23 24 24 20 16 13 11 13 12 13 15 15 16 27 27 21 22 24 29 24 20 24
19 9 9 8 9 9 10 8 8 2 5 13 5 12 14 12 15 22 17 11 6 6 8 8 8 17 20 23 25 26 27 23 19 15 13 13 15 19 20 20 31 27 25 29 27 22 21 22 27
13 8 7 3 8 4 2 3 5 6 6 11 9 6 15 25 26 22 15 16 14 12 12 9 1 8 20 22 26 29 31 30 27 23 18 17 17 20 25 25 28 29 28 26 23 21 20 22 26
5 4 6 8 8 8 1 2 4 7 7 8 8 8 8 19 16 8 6 13 19 20 19 14 10 11 15 26 29 31 35 35 33 29 25 18 20 23 27 27 25 30 31 28 23 22 21 22 26
10 6 7 7 9 9 5 4 6 8 5 8 5 6 14 17 6 10 18 21 25 29 31 26 22 17 17 25 30 33 36 38 38 35 32 27 22 24 28 30 31 34 31 29 27 25 24 24 27
5 7 4 6 8 7 4 5 6 4 6 3 5 6 6 18 24 27 30 32 32 32 37 35 28 27 25 22 29 28 36 41 42 40 39 35 30 26 31 34 34 33 34 29 28 28 27 26 28
2 5 4 4 3 4 5 5 4 3 4 7 9 10 14 27 34 35 33 34 38 38 35 32 29 30 32 33 28 31 31 42 45 46 44 42 42 35 35 38 39 37 39 34 31 30 28 28 30
6 4 7 1 1 3 1 1 1 3 1 12 24 27 22 20 28 33 36 42 45 37 29 28 29 30 36 38 39 35 34 38 49 51 51 51 48 44 39 41 42 41 41 39 35 33 33 32 33
0 6 2 3 3 0 5 8 4 5 9 29 21 32 29 31 36 40 36 34 35 37 36 33 33 34 35 43 46 47 40 39 46 55 56 58 56 52 48 45 46 50 47 44 43 40 38 37 37
4 11 12 6 4 3 5 10 10 23 30 38 31 38 40 40 34 36 37 32 29 36 43 40 38 38 38 41 49 53 53 47 45 55 62 65 65 61 58 53 54 56 56 54 50 45 40 41 40
4 7 13 14 22 19 20 23 20 28 42 42 42 38 37 35 35 31 34 32 35 42 51 53 53 50 47 46 46 55 60 59 53 50 60 68 71 70 66 62 61 61 62 60 57 49 45 45 45
14 15 25 27 34 30 18 27 22 28 27 30 28 37 36 35 31 35 29 34 44 51 55 60 63 64 64 62 56 54 60 68 65 61 58 69 76 77 75 70 68 68 68 65 61 53 50 47 47
16 12 14 24 28 11 9 11 17 51 49 48 47 32 29 35 33 28 32 42 48 56 67 74 77 76 74 71 70 66 62 65 75 74 67 65 73 82 82 80 77 74 73 69 64 59 53 51 51
9 5 7 12 13 8 15 13 21 29 17 26 36 45 45 25 24 28 36 46 54 66 72 70 66 67 72 72 72 75 73 69 72 79 80 72 70 80 87 88 85 80 77 73 72 67 62 60 60
11 7 8 17 20 8 10 11 21 34 31 31 33 35 38 38 33 33 41 53 61 65 67 67 61 57 60 65 69 73 77 78 73 76 84 85 77 73 86 94 91 87 84 78 78 74 70 66 67
9 10 11 14 11 12 17 25 22 59 49 42 42 19 19 24 30 41 53 62 58 57 63 65 60 55 50 52 54 60 70 81 80 78 83 87 87 83 82 92 98 96 92 85 81 79 74 72 71
8 11 14 14 16 12 18 29 24 39 43 41 41 24 24 26 34 45 55 52 54 53 62 66 61 54 49 47 55 65 73 73 86 85 82 83 84 83 80 94 101 103 100 95 88 83 78 75 72
4 11 14 14 9 8 14 34 27 21 25 45 31 21 14 25 38 48 49 48 48 53 62 65 54 52 52 56 56 64 66 72 75 82 82 83 81 81 81 86 101 106 102 98 95 90 86 78 75
6 10 9 13 13 10 10 19 16 14 31 25 25 14 9 21 30 38 43 41 46 54 54 56 48 46 52 58 60 59 62 67 67 79 82 86 83 82 80 85 97 104 106 103 99 97 96 86 81
10 7 10 15 11 7 9 11 12 12 3 12 23 10 8 15 24 32 36 41 43 46 50 53 52 54 58 52 55 55 63 68 70 73 70 74 83 78 79 79 91 90 112 107 104 100 102 94 89
14 8 10 8 6 7 9 3 14 4 7 12 16 9 8 13 21 30 29 37 38 44 51 53 52 44 43 38 45 51 58 61 61 63 66 72 74 79 76 76 84 89 98 107 110 106 106 105 97
11 10 11 0 2 5 10 10 11 7 12 7 8 12 10 14 20 26 27 31 36 44 56 52 45 43 34 35 41 53 58 57 61 63 66 63 72 84 77 72 73 81 87 105 111 106 113 117 111
13 8 8 8 4 11 1 8 20 11 12 13 15 14 11 13 17 23 26 33 37 45 53 58 46 43 31 35 41 49 60 59 62 63 64 66 66 75 87 86 84 77 97 85 98 118 104 123 114
3 1 4 9 5 10 7 11 11 10 18 19 13 11 11 12 16 19 23 30 33 40 45 51 54 46 36 36 41 48 56 65 64 65 65 65 68 67 70 72 74 78 72 96 93 119 109 107 106
1 1 2 6 4 8 8 14 14 6 5 8 13 16 17 12 15 19 22 25 29 35 41 45 51 55 45 43 40 40 42 52 60 58 60 62 67 69 62 59 61 66 73 76 99 93 115 115 107
4 3 8 5 7 10 10 11 10 9 13 11 13 24 22 16 17 19 21 23 25 29 35 39 44 51 51 42 36 37 36 41 51 54 56 62 61 65 64 61 55 58 65 77 87 86 72 106 110
3 3 3 6 5 6 7 14 12 13 17 18 19 30 23 20 19 20 22 23 26 27 30 35 40 47 53 41 39 37 36 33 38 48 53 55 61 62 65 69 64 60 60 65 74 75 69 92 92
6 12 10 7 8 5 6 14 8 11 15 24 27 29 29 26 21 21 22 23 24 28 29 33 34 40 46 46 33 33 28 30 36 43 40 42 55 61 69 73 71 66 66 67 67 71 63 67 70
Wind_Direction_850mb
154 155 147 128 74 66 248 262 312 59 76 147 51 104 104 64 43 152 115 116 56 197 202 211 210 205 212 200 192 187 178 171 167 155 154 146 136 150 150 146 137 137 139 143 146 144 155 144 137
157 156 144 91 94 121 256 301 135 324 286 140 110 125 47 74 93 122 95 111 105 118 147 229 211 211 216 213 208 209 196 192 180 170 166 156 149 155 155 147 140 138 131 137 144 160 152 143 144
158 154 110 103 122 187 195 225 163 64 44 212 119 80 81 103 128 128 120 131 116 113 98 78 202 218 223 217 218 217 217 215 211 190 183 175 162 162 164 153 154 146 145 160 156 152 154 150 149
146 120 73 104 209 246 186 210 197 264 49 43 61 58 77 109 136 154 168 189 261 331 25 56 125 217 228 231 222 225 221 223 225 217 188 198 179 174 168 161 159 155 157 143 156 161 158 157 156
109 114 82 143 242 219 116 174 125 88 109 53 46 99 104 105 136 155 197 234 256 276 300 309 5 196 231 242 242 229 226 225 225 224 216 210 203 188 181 176 174 172 173 166 166 170 168 164 165
67 83 87 202 229 135 87 272 125 63 41 28 59 92 119 144 169 161 229 267 285 293 277 287 273 233 224 230 245 245 231 227 227 224 225 218 212 202 195 192 190 185 184 182 179 182 177 178 175
101 77 210 210 212 153 184 358 81 110 93 47 72 111 146 164 165 309 300 284 282 291 291 284 271 251 237 230 239 249 243 234 227 226 225 221 217 220 206 202 203 198 191 192 193 190 186 185 182
85 104 251 259 204 178 210 130 142 133 165 74 143 202 196 184 309 308 294 285 284 287 292 288 272 248 241 237 242 249 245 240 236 226 226 224 226 225 224 209 207 207 200 201 199 197 193 194 191
64 66 243 297 169 187 193 153 134 140 173 254 206 225 264 290 296 291 288 288 291 296 291 286 276 254 243 242 240 248 249 239 237 234 227 226 226 227 225 218 212 213 208 208 207 205 202 198 195
80 123 232 304 36 165 40 117 257 253 170 266 263 253 262 273 292 292 292 294 299 299 293 291 283 269 252 246 244 241 247 247 236 231 230 228 227 227 230 223 217 212 216 214 211 210 208 206 201
306 215 320 298 114 4 297 299 259 274 274 243 243 271 272 273 288 290 295 300 304 307 301 300 293 283 267 253 248 250 242 243 243 236 235 230 228 226 229 224 218 210 216 215 215 214 214 211 205
264 255 262 254 223 182 243 285 287 245 247 265 271 275 274 274 277 283 291 296 292 294 296 290 285 282 278 266 251 247 248 243 240 240 233 233 229 226 227 225 220 214 214 214 219 221 218 213 208
257 289 314 289 298 280 262 240 250 254 264 269 272 265 260 266 271 279 282 281 282 286 293 291 287 283 276 270 261 249 245 245 244 241 238 234 235 230 227 226 224 220 218 217 220 221 220 217 212
313 298 294 303 292 279 258 259 247 262 268 271 264 259 252 254 263 272 264 271 281 289 291 291 288 282 278 272 267 259 248 242 243 243 237 238 236 236 230 228 226 224 223 223 223 223 222 220 215
289 301 309 271 268 235 269 277 235 263 273 262 260 256 245 251 257 249 265 279 289 295 298 296 290 284 278 274 269 264 257 245 240 241 242 238 238 236 235 231 228 228 226 225 226 224 224 222 217
313 14 342 303 338 233 169 278 276 290 299 275 248 249 260 246 232 248 272 288 299 304 305 302 294 282 273 273 269 264 258 250 241 239 240 239 239 238 235 234 231 231 229 225 225 224 223 221 219
10 310 318 322 304 279 210 261 272 288 303 300 292 285 280 251 253 277 292 302 305 304 307 306 301 291 277 270 270 265 260 253 245 237 237 238 238 240 239 236 234 232 232 226 226 225 225 223 221
272 264 235 244 280 311 283 267 268 278 282 281 291 282 250 266 275 288 302 304 300 301 307 307 300 294 284 270 266 267 262 252 247 241 233 236 238 238 241 239 238 232 230 228 226 225 226 227 225
246 256 267 266 264 280 265 274 268 270 270 272 281 247 249 285 292 304 307 300 304 301 304 307 298 288 277 267 268 270 265 262 247 241 235 234 236 238 237 235 237 235 231 230 228 225 225 226 222
313 291 292 285 290 301 281 282 273 249 250 252 244 218 277 306 307 312 315 307 306 305 308 307 299 288 273 265 266 268 269 264 258 246 240 232 234 238 237 233 234 232 232 231 229 225 222 223 221
274 263 274 272 310 264 264 282 255 269 243 223 181 188 294 320 319 320 316 313 311 308 310 314 312 297 282 262 258 261 263 261 257 244 241 232 232 235 237 234 231 233 231 232 228 226 223 219 220
301 256 284 296 350 282 49 292 281 274 146 154 172 182 327 319 317 321 323 322 323 326 323 315 309 302 296 263 254 261 262 259 251 245 246 239 232 236 240 240 235 230 223 230 233 227 226 221 221
251 290 280 259 262 311 311 113 275 115 156 188 200 194 297 307 310 323 328 339 337 331 326 323 314 302 297 264 253 261 262 259 256 252 249 241 234 232 238 242 237 237 232 232 229 230 227 222 223
279 311 310 216 135 306 233 157 281 216 206 188 189 220 261 299 313 324 327 340 338 337 338 336 328 314 285 267 254 253 259 256 252 253 249 244 233 230 233 238 242 239 237 239 233 231 233 224 224
35 47 334 346 349 233 213 150 253 248 222 182 194 224 254 293 314 324 324 335 339 348 350 348 341 332 308 279 270 262 257 255 255 252 247 239 236 233 232 236 243 246 239 235 235 231 231 228 224
258 47 137 301 304 287 309 233 251 260 197 181 186 221 240 285 308 316 328 342 348 350 348 352 353 342 332 313 282 265 259 253 250 254 249 242 236 235 235 236 241 244 247 242 235 243 235 243 228
349 55 299 258 197 278 266 295 311 74 131 193 212 232 250 274 308 321 331 339 350 348 348 352 357 354 328 322 314 291 273 254 252 250 248 247 239 238 243 245 246 245 246 245 241 246 238 235 231
184 207 47 342 328 298 288 284 245 242 230 233 246 241 263 281 304 323 330 333 343 338 339 344 359 359 357 334 317 307 294 263 254 250 250 246 242 239 239 243 246 251 250 244 243 253 256 235 237
116 289 158 130 188 204 300 277 216 236 207 212 232 245 258 275 290 308 323 334 336 339 342 344 356 3 11 3 353 313 295 283 248 246 248 248 245 243 242 246 248 250 255 250 248 248 246 249 234
203 202 160 133 254 212 167 272 270 253 210 210 238 253 262 265 274 289 304 317 333 342 345 347 356 7 12 16 356 331 315 280 261 249 245 248 245 243 245 247 249 251 256 255 252 240 230 231 239